| time (UTC) | temp C | wind direction | speed KPH | gust KPH | rain 1hr cm | rain 24hr cm | rain mn cm | humidity % | barometer mb |
| 20260510044904 | 25 | 127 | 4.8 | 9.7 | 0.00 | 0.00 | 0.00 | 82 | 1013.5 |
| 20260510044401 | 25 | 119 | 6.4 | 9.7 | 0.00 | 0.00 | 0.00 | 82 | 1013.2 |
| 20260510043857 | 25 | 132 | 6.4 | 8.0 | 0.00 | 0.00 | 0.00 | 81 | 1013.2 |
| 20260510043353 | 25 | 106 | 0.0 | 8.0 | 0.00 | 0.00 | 0.00 | 80 | 1013.6 |
| 20260510042851 | 25 | 95 | 3.2 | 8.0 | 0.00 | 0.00 | 0.00 | 80 | 1013.4 |
| 20260510042347 | 25 | 97 | 0.0 | 6.4 | 0.00 | 0.00 | 0.00 | 81 | 1013.3 |
| 20260510041843 | 25 | 105 | 3.2 | 8.0 | 0.00 | 0.00 | 0.00 | 80 | 1013.3 |
| 20260510041340 | 25 | 105 | 4.8 | 6.4 | 0.00 | 0.00 | 0.00 | 80 | 1013.6 |
| 20260510040838 | 25 | 116 | 8.0 | 8.0 | 0.00 | 0.00 | 0.00 | 79 | 1013.4 |
| 20260510040334 | 26 | 133 | 4.8 | 8.0 | 0.00 | 0.00 | 0.00 | 78 | 1013.3 |
| 20260510035830 | 26 | 118 | 4.8 | 8.0 | 0.00 | 0.00 | 0.00 | 79 | 1013.3 |
| 20260510035326 | 26 | 123 | 4.8 | 4.8 | 0.00 | 0.00 | 0.00 | 79 | 1013.4 |
| 20260510034822 | 26 | 119 | 3.2 | 8.0 | 0.00 | 0.00 | 0.00 | 78 | 1013.1 |
| 20260510034320 | 26 | 95 | 3.2 | 6.4 | 0.00 | 0.00 | 0.00 | 79 | 1013.2 |
| 20260510033816 | 26 | 90 | 1.6 | 6.4 | 0.00 | 0.00 | 0.00 | 78 | 1013.3 |
| 20260510033313 | 26 | 129 | 4.8 | 8.0 | 0.00 | 0.00 | 0.00 | 78 | 1013.1 |
| 20260510032810 | 26 | 94 | 4.8 | 8.0 | 0.00 | 0.00 | 0.00 | 78 | 1013.2 |
| 20260510032306 | 26 | 116 | 4.8 | 11.3 | 0.00 | 0.00 | 0.00 | 78 | 1013.0 |
| 20260510031802 | 26 | 107 | 0.0 | 14.5 | 0.00 | 0.00 | 0.00 | 77 | 1012.9 |
| 20260510031257 | 27 | 110 | 4.8 | 14.5 | 0.00 | 0.00 | 0.00 | 77 | 1012.9 |
| 20260510030751 | 27 | 121 | 8.0 | 11.3 | 0.00 | 0.00 | 0.00 | 77 | 1012.8 |
| 20260510030248 | 26 | 117 | 12.9 | 12.9 | 0.00 | 0.00 | 0.00 | 77 | 1012.7 |
| 20260510025746 | 27 | 124 | 4.8 | 11.3 | 0.00 | 0.00 | 0.00 | 77 | 1012.7 |
| 20260510025243 | 27 | 130 | 8.0 | 12.9 | 0.00 | 0.00 | 0.00 | 76 | 1012.8 |
| 20260510024740 | 27 | 134 | 0.0 | 14.5 | 0.00 | 0.00 | 0.00 | 75 | 1012.6 |
| 20260510024236 | 27 | 123 | 4.8 | 11.3 | 0.00 | 0.00 | 0.00 | 74 | 1012.5 |
| 20260510023732 | 27 | 140 | 8.0 | 11.3 | 0.00 | 0.00 | 0.00 | 73 | 1012.4 |
| 20260510023230 | 27 | 134 | 9.7 | 11.3 | 0.00 | 0.00 | 0.00 | 73 | 1012.4 |
| 20260510022726 | 27 | 107 | 4.8 | 9.7 | 0.00 | 0.00 | 0.00 | 72 | 1012.1 |
| 20260510022225 | 27 | 124 | 6.4 | 8.0 | 0.00 | 0.00 | 0.00 | 71 | 1012.4 |
| 20260510021721 | 27 | 115 | 3.2 | 9.7 | 0.00 | 0.00 | 0.00 | 71 | 1012.1 |
| 20260510021219 | 27 | 119 | 4.8 | 9.7 | 0.00 | 0.00 | 0.00 | 72 | 1012.1 |
| 20260510020713 | 28 | 115 | 6.4 | 9.7 | 0.00 | 0.00 | 0.00 | 71 | 1011.9 |
| 20260510020209 | 28 | 102 | 4.8 | 6.4 | 0.00 | 0.00 | 0.00 | 70 | 1012.0 |
| 20260510015705 | 28 | 125 | 4.8 | 11.3 | 0.00 | 0.00 | 0.00 | 69 | 1011.9 |
| 20260510015201 | 28 | 132 | 6.4 | 9.7 | 0.00 | 0.00 | 0.00 | 70 | 1011.7 |
| 20260510014701 | 28 | 113 | 6.4 | 9.7 | 0.00 | 0.00 | 0.00 | 69 | 1011.7 |
| 20260510014159 | 28 | 135 | 6.4 | 11.3 | 0.00 | 0.00 | 0.00 | 70 | 1011.8 |
| 20260510013654 | 28 | 117 | 4.8 | 12.9 | 0.00 | 0.00 | 0.00 | 69 | 1011.6 |
| 20260510013150 | 28 | 147 | 6.4 | 11.3 | 0.00 | 0.00 | 0.00 | 69 | 1011.5 |
| 20260510012649 | 28 | 99 | 8.0 | 12.9 | 0.00 | 0.00 | 0.00 | 68 | 1011.7 |
| 20260510012146 | 28 | 137 | 11.3 | 14.5 | 0.00 | 0.00 | 0.00 | 68 | 1011.4 |
| 20260510011641 | 28 | 132 | 6.4 | 11.3 | 0.00 | 0.00 | 0.00 | 67 | 1011.5 |
| 20260510011137 | 28 | 135 | 4.8 | 11.3 | 0.00 | 0.00 | 0.00 | 66 | 1011.6 |
| 20260510010633 | 28 | 132 | 6.4 | 11.3 | 0.00 | 0.00 | 0.00 | 65 | 1011.6 |
| 20260510010130 | 28 | 209 | 1.6 | 9.7 | 0.00 | 0.00 | 0.00 | 65 | 1011.2 |
| 20260510005625 | 29 | 121 | 6.4 | 11.3 | 0.00 | 0.00 | 0.00 | 62 | 1011.1 |
| 20260510005123 | 29 | 130 | 6.4 | 11.3 | 0.00 | 0.00 | 0.00 | 61 | 1011.2 |
| 20260510004621 | 29 | 61 | 4.8 | 11.3 | 0.00 | 0.00 | 0.00 | 60 | 1011.3 |
| 20260510004119 | 29 | 90 | 3.2 | 11.3 | 0.00 | 0.00 | 0.00 | 61 | 1011.5 |
| 20260510003616 | 29 | 115 | 14.5 | 14.5 | 0.00 | 0.00 | 0.00 | 60 | 1011.0 |
| 20260510003112 | 29 | 144 | 8.0 | 14.5 | 0.00 | 0.00 | 0.00 | 59 | 1011.1 |
| 20260510002606 | 29 | 119 | 14.5 | 14.5 | 0.00 | 0.00 | 0.00 | 61 | 1011.1 |
| 20260510002103 | 30 | 172 | 1.6 | 14.5 | 0.00 | 0.00 | 0.00 | 60 | 1011.1 |
| 20260510001601 | 30 | 153 | 6.4 | 12.9 | 0.00 | 0.00 | 0.00 | 59 | 1010.8 |
| 20260510001100 | 30 | 111 | 4.8 | 12.9 | 0.00 | 0.00 | 0.00 | 57 | 1011.1 |
| 20260510000559 | 30 | 125 | 9.7 | 14.5 | 0.00 | 0.00 | 0.00 | 56 | 1011.1 |
| 20260510000056 | 30 | 94 | 8.0 | 14.5 | 0.00 | 0.00 | 0.00 | 55 | 1010.7 |
| 20260509235553 | 30 | 112 | 6.4 | 14.5 | 0.00 | 0.00 | 0.00 | 53 | 1010.8 |
| 20260509235050 | 30 | 147 | 8.0 | 9.7 | 0.00 | 0.00 | 0.00 | 52 | 1010.7 |
| 20260509234546 | 30 | 102 | 4.8 | 11.3 | 0.00 | 0.00 | 0.00 | 52 | 1010.6 |
| 20260509234044 | 30 | 132 | 8.0 | 9.7 | 0.00 | 0.00 | 0.00 | 53 | 1010.7 |
| 20260509233541 | 30 | 118 | 9.7 | 14.5 | 0.00 | 0.00 | 0.00 | 52 | 1010.8 |
| 20260509233038 | 30 | 140 | 4.8 | 12.9 | 0.00 | 0.00 | 0.00 | 51 | 1010.8 |
| 20260509232535 | 30 | 94 | 9.7 | 12.9 | 0.00 | 0.00 | 0.00 | 51 | 1010.5 |
| 20260509232031 | 30 | 132 | 9.7 | 11.3 | 0.00 | 0.00 | 0.00 | 51 | 1010.3 |
| 20260509231528 | 30 | 111 | 9.7 | 11.3 | 0.00 | 0.00 | 0.00 | 51 | 1010.6 |
| 20260509231026 | 31 | 155 | 8.0 | 14.5 | 0.00 | 0.00 | 0.00 | 52 | 1010.7 |
| 20260509230522 | 31 | 75 | 3.2 | 9.7 | 0.00 | 0.00 | 0.00 | 51 | 1010.7 |
| 20260509230019 | 31 | 114 | 4.8 | 8.0 | 0.00 | 0.00 | 0.00 | 51 | 1010.4 |
| 20260509225514 | 30 | 88 | 11.3 | 19.3 | 0.00 | 0.00 | 0.00 | 53 | 1010.5 |
| 20260509225010 | 30 | 125 | 8.0 | 14.5 | 0.00 | 0.00 | 0.00 | 53 | 1010.6 |
| 20260509224507 | 30 | 153 | 9.7 | 17.7 | 0.00 | 0.00 | 0.00 | 52 | 1010.4 |
| 20260509224003 | 30 | 105 | 4.8 | 11.3 | 0.00 | 0.00 | 0.00 | 54 | 1010.6 |
| 20260509223500 | 30 | 105 | 4.8 | 11.3 | 0.00 | 0.00 | 0.00 | 57 | 1010.7 |
| 20260509222957 | 31 | 121 | 4.8 | 9.7 | 0.00 | 0.00 | 0.00 | 56 | 1010.6 |
| 20260509222453 | 30 | 97 | 4.8 | 16.1 | 0.00 | 0.00 | 0.00 | 56 | 1010.6 |
| 20260509221949 | 30 | 135 | 14.5 | 14.5 | 0.00 | 0.00 | 0.00 | 54 | 1010.6 |
| 20260509221445 | 30 | 108 | 6.4 | 14.5 | 0.00 | 0.00 | 0.00 | 55 | 1010.6 |
| 20260509220941 | 30 | 131 | 8.0 | 11.3 | 0.00 | 0.00 | 0.00 | 55 | 1010.5 |
| 20260509220437 | 30 | 115 | 9.7 | 16.1 | 0.00 | 0.00 | 0.00 | 54 | 1010.5 |
| 20260509215934 | 30 | 113 | 12.9 | 14.5 | 0.00 | 0.00 | 0.00 | 56 | 1010.8 |
| 20260509215429 | 30 | 147 | 9.7 | 12.9 | 0.00 | 0.00 | 0.00 | 57 | 1010.6 |
| 20260509214927 | 30 | 155 | 6.4 | 16.1 | 0.00 | 0.00 | 0.00 | 55 | 1010.6 |
| 20260509214424 | 31 | 160 | 4.8 | 14.5 | 0.00 | 0.00 | 0.00 | 55 | 1010.7 |
| 20260509213921 | 32 | 99 | 3.2 | 19.3 | 0.00 | 0.00 | 0.00 | 47 | 1010.6 |
| 20260509213416 | 32 | 117 | 16.1 | 16.1 | 0.00 | 0.00 | 0.00 | 48 | 1010.7 |
| 20260509212914 | 33 | 104 | 4.8 | 16.1 | 0.00 | 0.00 | 0.00 | 46 | 1010.8 |
| 20260509212412 | 34 | 127 | 0.0 | 3.2 | 0.00 | 0.00 | 0.00 | 43 | 1010.9 |
| 20260509211908 | 34 | 90 | 0.0 | 3.2 | 0.00 | 0.00 | 0.00 | 44 | 1010.7 |
| 20260509211404 | 33 | 217 | 3.2 | 8.0 | 0.00 | 0.00 | 0.00 | 47 | 1011.0 |
| 20260509210900 | 33 | 206 | 4.8 | 8.0 | 0.00 | 0.00 | 0.00 | 45 | 1011.0 |
| 20260509210357 | 33 | 173 | 1.6 | 8.0 | 0.00 | 0.00 | 0.00 | 45 | 1010.9 |
| 20260509205852 | 33 | 173 | 1.6 | 8.0 | 0.00 | 0.00 | 0.00 | 46 | 1010.9 |
| 20260509205346 | 33 | 226 | 9.7 | 9.7 | 0.00 | 0.00 | 0.00 | 47 | 1011.0 |
| 20260509204843 | 35 | 241 | 3.2 | 6.4 | 0.00 | 0.00 | 0.00 | 45 | 1011.1 |
| 20260509204334 | 34 | 225 | 4.8 | 4.8 | 0.00 | 0.00 | 0.00 | 46 | 1011.3 |
| 20260509203830 | 34 | 270 | 0.0 | 4.8 | 0.00 | 0.00 | 0.00 | 45 | 1011.3 |
| 20260509203327 | 33 | 105 | 3.2 | 3.2 | 0.00 | 0.00 | 0.00 | 47 | 1011.4 |
| 20260509202823 | 33 | 348 | 4.8 | 6.4 | 0.00 | 0.00 | 0.00 | 47 | 1011.6 |
| 20260509202320 | 33 | 264 | 3.2 | 8.0 | 0.00 | 0.00 | 0.00 | 46 | 1011.8 |
| 20260509201819 | 34 | 234 | 6.4 | 6.4 | 0.00 | 0.00 | 0.00 | 48 | 1011.6 |
| 20260509201316 | 35 | 187 | 0.0 | 3.2 | 0.00 | 0.00 | 0.00 | 46 | 1011.8 |
| 20260509200813 | 34 | 180 | 1.6 | 4.8 | 0.00 | 0.00 | 0.00 | 46 | 1012.1 |
| 20260509200308 | 34 | 243 | 4.8 | 8.0 | 0.00 | 0.00 | 0.00 | 48 | 1012.1 |
| 20260509195805 | 33 | 225 | 4.8 | 6.4 | 0.00 | 0.00 | 0.00 | 49 | 1011.9 |
| 20260509195300 | 33 | 256 | 4.8 | 12.9 | 0.00 | 0.00 | 0.00 | 50 | 1012.0 |
| 20260509194759 | 32 | 349 | 6.4 | 11.3 | 0.00 | 0.00 | 0.00 | 49 | 1011.8 |
| 20260509194256 | 32 | 222 | 4.8 | 16.1 | 0.00 | 0.00 | 0.00 | 50 | 1012.0 |
| 20260509193753 | 32 | 0 | 3.2 | 12.9 | 0.00 | 0.00 | 0.00 | 49 | 1011.9 |
| 20260509193253 | 32 | 230 | 11.3 | 11.3 | 0.00 | 0.00 | 0.00 | 53 | 1011.9 |
| 20260509192749 | 32 | 288 | 11.3 | 11.3 | 0.00 | 0.00 | 0.00 | 54 | 1011.9 |
| 20260509192244 | 31 | 243 | 1.6 | 16.1 | 0.00 | 0.00 | 0.00 | 55 | 1012.3 |
| 20260509191739 | 31 | 220 | 8.0 | 17.7 | 0.00 | 0.00 | 0.00 | 56 | 1012.3 |
| 20260509191236 | 31 | 248 | 3.2 | 8.0 | 0.00 | 0.00 | 0.00 | 57 | 1012.5 |
| 20260509190732 | 32 | 180 | 4.8 | 16.1 | 0.00 | 0.00 | 0.00 | 56 | 1012.3 |
| 20260509190229 | 31 | 252 | 6.4 | 12.9 | 0.00 | 0.00 | 0.00 | 56 | 1012.4 |
| 20260509185727 | 32 | 251 | 4.8 | 8.0 | 0.00 | 0.00 | 0.00 | 58 | 1012.8 |
| 20260509185223 | 32 | 206 | 0.0 | 4.8 | 0.00 | 0.00 | 0.00 | 58 | 1012.8 |
| 20260509184721 | 31 | 82 | 0.0 | 11.3 | 0.00 | 0.00 | 0.00 | 62 | 1012.8 |
| 20260509184218 | 31 | 354 | 4.8 | 14.5 | 0.00 | 0.00 | 0.00 | 59 | 1012.9 |
| 20260509183714 | 31 | 281 | 3.2 | 4.8 | 0.00 | 0.00 | 0.00 | 60 | 1013.0 |
| 20260509183209 | 30 | 268 | 8.0 | 12.9 | 0.00 | 0.00 | 0.00 | 60 | 1013.0 |
| 20260509182705 | 31 | 0 | 0.0 | 4.8 | 0.00 | 0.00 | 0.00 | 60 | 1013.0 |
| 20260509182203 | 31 | 195 | 4.8 | 11.3 | 0.00 | 0.00 | 0.00 | 60 | 1013.1 |
| 20260509181700 | 31 | 194 | 4.8 | 8.0 | 0.00 | 0.00 | 0.00 | 60 | 1013.0 |
| 20260509181158 | 30 | 218 | 8.0 | 12.9 | 0.00 | 0.00 | 0.00 | 62 | 1013.4 |
| 20260509180654 | 30 | 221 | 8.0 | 12.9 | 0.00 | 0.00 | 0.00 | 61 | 1013.5 |
| 20260509180150 | 31 | 244 | 6.4 | 6.4 | 0.00 | 0.00 | 0.00 | 61 | 1013.6 |
| 20260509175646 | 30 | 246 | 0.0 | 11.3 | 0.00 | 0.00 | 0.00 | 63 | 1013.5 |
| 20260509175144 | 30 | 277 | 4.8 | 11.3 | 0.00 | 0.00 | 0.00 | 63 | 1013.4 |
| 20260509174639 | 30 | 276 | 8.0 | 14.5 | 0.00 | 0.00 | 0.00 | 62 | 1013.7 |
| 20260509174134 | 31 | 16 | 3.2 | 4.8 | 0.00 | 0.00 | 0.00 | 62 | 1013.6 |
| 20260509173630 | 31 | 220 | 8.0 | 9.7 | 0.00 | 0.00 | 0.00 | 63 | 1013.8 |
| 20260509173126 | 30 | 151 | 1.6 | 6.4 | 0.00 | 0.00 | 0.00 | 65 | 1014.1 |
| 20260509172623 | 30 | 165 | 4.8 | 9.7 | 0.00 | 0.00 | 0.00 | 64 | 1013.8 |
| 20260509172119 | 30 | 247 | 3.2 | 11.3 | 0.00 | 0.00 | 0.00 | 66 | 1013.9 |
| 20260509171615 | 30 | 219 | 4.8 | 11.3 | 0.00 | 0.00 | 0.00 | 63 | 1013.6 |
| 20260509171112 | 30 | 187 | 4.8 | 8.0 | 0.00 | 0.00 | 0.00 | 65 | 1013.9 |
| 20260509170608 | 30 | 243 | 0.0 | 6.4 | 0.00 | 0.00 | 0.00 | 67 | 1013.6 |
| 20260509170104 | 30 | 219 | 4.8 | 12.9 | 0.00 | 0.00 | 0.00 | 65 | 1013.7 |
| 20260509165603 | 30 | 23 | 0.0 | 6.4 | 0.00 | 0.00 | 0.00 | 69 | 1013.8 |
| 20260509165058 | 28 | 157 | 1.6 | 4.8 | 0.00 | 0.00 | 0.00 | 70 | 1013.9 |
| 20260509164554 | 28 | 168 | 0.0 | 6.4 | 0.00 | 0.00 | 0.00 | 73 | 1014.0 |
| 20260509164050 | 28 | 117 | 3.2 | 6.4 | 0.00 | 0.00 | 0.00 | 73 | 1014.0 |
| 20260509163549 | 28 | 176 | 3.2 | 6.4 | 0.00 | 0.00 | 0.00 | 74 | 1014.1 |
| 20260509163044 | 27 | 210 | 4.8 | 4.8 | 0.00 | 0.00 | 0.00 | 76 | 1014.0 |
| 20260509162541 | 27 | 132 | 3.2 | 4.8 | 0.00 | 0.00 | 0.00 | 78 | 1014.0 |
| 20260509162036 | 27 | 203 | 0.0 | 4.8 | 0.00 | 0.00 | 0.00 | 79 | 1013.9 |
| 20260509161533 | 27 | 135 | 6.4 | 6.4 | 0.00 | 0.00 | 0.00 | 81 | 1014.2 |
| 20260509161028 | 26 | 206 | 8.0 | 12.9 | 0.00 | 0.00 | 0.00 | 83 | 1014.2 |
| 20260509160524 | 26 | 184 | 0.0 | 9.7 | 0.00 | 0.00 | 0.00 | 83 | 1014.2 |
| 20260509160020 | 25 | 231 | 3.2 | 11.3 | 0.00 | 0.00 | 0.00 | 85 | 1014.3 |
| 20260509155516 | 25 | 210 | 8.0 | 11.3 | 0.00 | 0.00 | 0.00 | 87 | 1014.3 |
| 20260509155012 | 25 | 202 | 4.8 | 14.5 | 0.00 | 0.00 | 0.00 | 88 | 1014.4 |
| 20260509154509 | 24 | 196 | 4.8 | 16.1 | 0.00 | 0.00 | 0.00 | 89 | 1014.3 |
| 20260509154007 | 24 | 212 | 9.7 | 9.7 | 0.00 | 0.00 | 0.00 | 89 | 1014.2 |
| 20260509153503 | 24 | 198 | 4.8 | 11.3 | 0.00 | 0.00 | 0.00 | 89 | 1014.3 |
| 20260509153000 | 23 | 139 | 3.2 | 16.1 | 0.00 | 0.00 | 0.00 | 89 | 1014.3 |
| 20260509152455 | 24 | 206 | 9.7 | 11.3 | 0.00 | 0.00 | 0.00 | 90 | 1014.2 |
| 20260509151953 | 23 | 162 | 0.0 | 11.3 | 0.00 | 0.00 | 0.00 | 90 | 1014.0 |
| 20260509151449 | 23 | 152 | 8.0 | 11.3 | 0.00 | 0.00 | 0.00 | 90 | 1013.8 |
| 20260509150947 | 23 | 148 | 3.2 | 11.3 | 0.00 | 0.00 | 0.00 | 91 | 1013.9 |
| 20260509150444 | 23 | 180 | 6.4 | 11.3 | 0.00 | 0.00 | 0.00 | 91 | 1014.0 |
| 20260509145943 | 23 | 155 | 4.8 | 6.4 | 0.00 | 0.00 | 0.00 | 91 | 1013.9 |
| 20260509145443 | 23 | 152 | 9.7 | 9.7 | 0.00 | 0.00 | 0.00 | 91 | 1014.0 |
| 20260509144938 | 23 | 128 | 6.4 | 11.3 | 0.00 | 0.00 | 0.00 | 91 | 1013.8 |
| 20260509144436 | 23 | 148 | 11.3 | 14.5 | 0.00 | 0.00 | 0.00 | 91 | 1013.8 |
| 20260509143932 | 23 | 120 | 8.0 | 12.9 | 0.00 | 0.00 | 0.00 | 91 | 1014.1 |
| 20260509143430 | 24 | 119 | 6.4 | 9.7 | 0.00 | 0.00 | 0.00 | 92 | 1014.0 |
| 20260509142926 | 24 | 99 | 8.0 | 11.3 | 0.00 | 0.00 | 0.00 | 92 | 1013.7 |
| 20260509142422 | 25 | 147 | 3.2 | 4.8 | 0.00 | 0.00 | 0.00 | 92 | 1013.6 |
| 20260509141918 | 24 | 116 | 4.8 | 8.0 | 0.00 | 0.00 | 0.00 | 93 | 1013.4 |
| 20260509141415 | 24 | 90 | 0.0 | 3.2 | 0.00 | 0.00 | 0.00 | 94 | 1013.5 |
| 20260509140912 | 23 | 220 | 3.2 | 8.0 | 0.00 | 0.00 | 0.00 | 94 | 1013.1 |
| 20260509140408 | 23 | 204 | 3.2 | 8.0 | 0.00 | 0.00 | 0.00 | 95 | 1013.0 |
| 20260509135907 | 23 | 154 | 4.8 | 8.0 | 0.00 | 0.00 | 0.00 | 95 | 1013.2 |
| 20260509135404 | 23 | 188 | 0.0 | 8.0 | 0.00 | 0.00 | 0.00 | 95 | 1013.0 |
| 20260509134901 | 23 | 203 | 6.4 | 8.0 | 0.00 | 0.00 | 0.00 | 95 | 1012.8 |
| 20260509134358 | 23 | 163 | 0.0 | 8.0 | 0.00 | 0.00 | 0.00 | 95 | 1013.2 |
| 20260509133855 | 22 | 199 | 3.2 | 6.4 | 0.00 | 0.00 | 0.00 | 96 | 1013.2 |
| 20260509133352 | 22 | 133 | 11.3 | 11.3 | 0.00 | 0.00 | 0.00 | 96 | 1013.2 |
| 20260509132851 | 22 | 145 | 8.0 | 12.9 | 0.00 | 0.00 | 0.00 | 96 | 1013.2 |
| 20260509132349 | 22 | 161 | 3.2 | 9.7 | 0.00 | 0.00 | 0.00 | 96 | 1013.5 |
| 20260509131845 | 22 | 186 | 4.8 | 9.7 | 0.00 | 0.00 | 0.00 | 96 | 1013.6 |
| 20260509131342 | 22 | 96 | 4.8 | 6.4 | 0.00 | 0.00 | 0.00 | 96 | 1013.5 |
| 20260509130839 | 22 | 180 | 0.0 | 4.8 | 0.00 | 0.00 | 0.00 | 96 | 1013.7 |
| 20260509130334 | 22 | 160 | 0.0 | 3.2 | 0.00 | 0.00 | 0.00 | 96 | 1013.9 |
| 20260509125831 | 22 | 185 | 1.6 | 4.8 | 0.00 | 0.00 | 0.00 | 96 | 1013.9 |
| 20260509125327 | 22 | 229 | 0.0 | 3.2 | 0.00 | 0.00 | 0.00 | 96 | 1014.0 |
| 20260509124824 | 22 | 0 | 0.0 | 4.8 | 0.00 | 0.00 | 0.00 | 96 | 1013.8 |
| 20260509124321 | 22 | 351 | 3.2 | 6.4 | 0.00 | 0.00 | 0.00 | 96 | 1014.0 |
| 20260509123819 | 22 | 8 | 0.0 | 8.0 | 0.00 | 0.00 | 0.00 | 96 | 1013.9 |
| 20260509123316 | 22 | 286 | 1.6 | 4.8 | 0.00 | 0.00 | 0.00 | 96 | 1013.5 |
| 20260509122811 | 22 | 358 | 4.8 | 4.8 | 0.00 | 0.00 | 0.00 | 96 | 1013.4 |
| 20260509122309 | 22 | 289 | 0.0 | 3.2 | 0.00 | 0.00 | 0.00 | 96 | 1013.6 |
| 20260509121805 | 22 | 240 | 0.0 | 1.6 | 0.00 | 0.00 | 0.00 | 96 | 1013.7 |
| 20260509121303 | 22 | 337 | 3.2 | 4.8 | 0.00 | 0.00 | 0.00 | 96 | 1013.6 |
| 20260509120801 | 22 | 254 | 0.0 | 1.6 | 0.00 | 0.00 | 0.00 | 96 | 1013.5 |
| 20260509120258 | 22 | 355 | 3.2 | 3.2 | 0.00 | 0.00 | 0.00 | 96 | 1013.5 |
| 20260509115756 | 22 | 311 | 0.0 | 3.2 | 0.00 | 0.00 | 0.00 | 96 | 1013.9 |
| 20260509115253 | 22 | 188 | 0.0 | 3.2 | 0.00 | 0.00 | 0.00 | 96 | 1013.8 |
| 20260509114751 | 22 | 172 | 0.0 | 3.2 | 0.00 | 0.00 | 0.00 | 96 | 1014.3 |
| 20260509114249 | 22 | 111 | 0.0 | 0.0 | 0.00 | 0.00 | 0.00 | 96 | 1013.8 |
| 20260509113748 | 22 | 154 | 1.6 | 6.4 | 0.00 | 0.00 | 0.00 | 96 | 1014.0 |
| 20260509113244 | 22 | 83 | 0.0 | 3.2 | 0.00 | 0.00 | 0.00 | 96 | 1013.9 |
| 20260509112741 | 22 | 12 | 0.0 | 3.2 | 0.00 | 0.00 | 0.00 | 96 | 1014.0 |
| 20260509112239 | 22 | 8 | 0.0 | 3.2 | 0.00 | 0.00 | 0.00 | 96 | 1014.5 |
| 20260509111736 | 22 | 23 | 4.8 | 4.8 | 0.00 | 0.00 | 0.00 | 96 | 1014.6 |
| 20260509111232 | 22 | 14 | 1.6 | 8.0 | 0.00 | 0.00 | 0.00 | 96 | 1014.7 |
| 20260509110730 | 22 | 20 | 4.8 | 4.8 | 0.00 | 0.00 | 0.00 | 96 | 1014.8 |
| 20260509110226 | 22 | 180 | 0.0 | 0.0 | 0.00 | 0.00 | 0.00 | 96 | 1014.7 |
| 20260509105725 | 22 | 180 | 0.0 | 0.0 | 0.00 | 0.00 | 0.00 | 96 | 1014.7 |
| 20260509105222 | 22 | 120 | 0.0 | 0.0 | 0.00 | 0.00 | 0.00 | 96 | 1014.7 |
| 20260509104719 | 22 | 0 | 0.0 | 3.2 | 0.00 | 0.00 | 0.00 | 96 | 1014.9 |
| 20260509104215 | 22 | 12 | 3.2 | 4.8 | 0.00 | 0.00 | 0.00 | 96 | 1014.9 |
| 20260509103714 | 22 | 254 | 0.0 | 4.8 | 0.00 | 0.00 | 0.00 | 96 | 1014.7 |
| 20260509103210 | 22 | 18 | 3.2 | 3.2 | 0.00 | 0.00 | 0.00 | 96 | 1014.9 |
| 20260509102709 | 22 | 206 | 1.6 | 4.8 | 0.00 | 0.00 | 0.00 | 96 | 1014.7 |
| 20260509102205 | 22 | 15 | 0.0 | 6.4 | 0.00 | 0.00 | 0.00 | 96 | 1014.5 |
| 20260509101702 | 22 | 4 | 3.2 | 8.0 | 0.00 | 0.00 | 0.00 | 95 | 1014.5 |
| 20260509101158 | 22 | 6 | 4.8 | 8.0 | 0.00 | 0.00 | 0.00 | 95 | 1014.4 |
| 20260509100656 | 22 | 27 | 6.4 | 6.4 | 0.00 | 0.00 | 0.00 | 95 | 1014.2 |
| 20260509100152 | 22 | 0 | 8.0 | 8.0 | 0.00 | 0.00 | 0.00 | 95 | 1014.1 |
| 20260509095650 | 22 | 10 | 4.8 | 4.8 | 0.00 | 0.00 | 0.00 | 95 | 1013.9 |
| 20260509095147 | 22 | 8 | 0.0 | 3.2 | 0.00 | 0.00 | 0.00 | 95 | 1013.6 |
| 20260509094643 | 22 | 101 | 0.0 | 4.8 | 0.00 | 0.00 | 0.00 | 95 | 1013.3 |
| 20260509094140 | 22 | 90 | 0.0 | 4.8 | 0.00 | 0.00 | 0.00 | 95 | 1013.3 |
| 20260509093639 | 22 | 126 | 1.6 | 4.8 | 0.00 | 0.00 | 0.00 | 95 | 1013.2 |
| 20260509093135 | 22 | 81 | 0.0 | 6.4 | 0.00 | 0.00 | 0.00 | 95 | 1013.0 |
| 20260509092633 | 22 | 157 | 1.6 | 4.8 | 0.05 | 0.00 | 0.00 | 95 | 1012.9 |
| 20260509092132 | 22 | 120 | 0.0 | 3.2 | 0.05 | 0.00 | 0.00 | 95 | 1013.3 |
| 20260509091629 | 22 | 75 | 1.6 | 3.2 | 0.00 | 0.00 | 0.00 | 95 | 1013.2 |
| 20260509091125 | 22 | 106 | 3.2 | 3.2 | 0.00 | 0.00 | 0.00 | 95 | 1013.1 |
| 20260509090623 | 22 | 145 | 0.0 | 1.6 | 0.00 | 0.00 | 0.00 | 95 | 1013.3 |
| 20260509090120 | 22 | 105 | 0.0 | 3.2 | 0.00 | 0.00 | 0.00 | 95 | 1013.0 |
| 20260509085618 | 22 | 195 | 0.0 | 0.0 | 0.00 | 0.00 | 0.00 | 94 | 1013.2 |
| 20260509085113 | 22 | 165 | 0.0 | 0.0 | 0.00 | 0.00 | 0.00 | 94 | 1013.0 |
| 20260509084611 | 22 | 165 | 0.0 | 1.6 | 0.00 | 0.00 | 0.00 | 94 | 1013.2 |
| 20260509084108 | 22 | 103 | 0.0 | 3.2 | 0.00 | 0.00 | 0.00 | 94 | 1013.3 |
| 20260509083605 | 22 | 175 | 0.0 | 3.2 | 0.00 | 0.00 | 0.00 | 94 | 1013.2 |
| 20260509083101 | 22 | 90 | 0.0 | 3.2 | 0.00 | 0.00 | 0.00 | 94 | 1013.3 |
| 20260509082559 | 22 | 352 | 0.0 | 4.8 | 0.00 | 0.00 | 0.00 | 94 | 1013.4 |
| 20260509082056 | 22 | 37 | 0.0 | 4.8 | 0.00 | 0.00 | 0.00 | 94 | 1013.6 |
| 20260509081553 | 22 | 97 | 1.6 | 4.8 | 0.00 | 0.00 | 0.00 | 93 | 1013.6 |
| 20260509081049 | 22 | 83 | 0.0 | 6.4 | 0.00 | 0.00 | 0.00 | 93 | 1013.6 |
| 20260509080548 | 22 | 112 | 3.2 | 8.0 | 0.00 | 0.00 | 0.00 | 93 | 1013.4 |
| 20260509080046 | 22 | 12 | 3.2 | 6.4 | 0.00 | 0.00 | 0.00 | 93 | 1013.6 |
| 20260509075542 | 22 | 8 | 0.0 | 4.8 | 0.00 | 0.00 | 0.00 | 93 | 1013.4 |
| 20260509075041 | 22 | 51 | 0.0 | 6.4 | 0.00 | 0.00 | 0.00 | 92 | 1013.4 |
| 20260509074537 | 22 | 10 | 3.2 | 3.2 | 0.00 | 0.00 | 0.00 | 92 | 1013.5 |
| 20260509074034 | 22 | 32 | 3.2 | 4.8 | 0.00 | 0.00 | 0.00 | 92 | 1013.5 |
| 20260509073530 | 22 | 94 | 4.8 | 4.8 | 0.00 | 0.00 | 0.00 | 92 | 1013.6 |
| 20260509073027 | 22 | 33 | 4.8 | 6.4 | 0.00 | 0.00 | 0.00 | 92 | 1013.4 |
| 20260509072523 | 22 | 90 | 3.2 | 6.4 | 0.00 | 0.00 | 0.00 | 91 | 1013.3 |
| 20260509072020 | 22 | 63 | 6.4 | 6.4 | 0.00 | 0.00 | 0.00 | 91 | 1013.7 |
| 20260509071517 | 23 | 99 | 0.0 | 3.2 | 0.00 | 0.00 | 0.00 | 91 | 1013.7 |
| 20260509071015 | 23 | 63 | 3.2 | 4.8 | 0.00 | 0.00 | 0.00 | 91 | 1013.7 |
| 20260509070512 | 23 | 84 | 1.6 | 4.8 | 0.00 | 0.00 | 0.00 | 91 | 1013.4 |
| 20260509070008 | 23 | 80 | 4.8 | 6.4 | 0.00 | 0.00 | 0.00 | 91 | 1013.8 |
| 20260509065503 | 23 | 98 | 1.6 | 4.8 | 0.00 | 0.00 | 0.00 | 91 | 1013.9 |
| 20260509065000 | 22 | 66 | 0.0 | 1.6 | 0.00 | 0.00 | 0.00 | 91 | 1013.8 |
| 20260509064458 | 22 | 74 | 0.0 | 1.6 | 0.00 | 0.00 | 0.00 | 91 | 1013.5 |
| 20260509063955 | 23 | 48 | 0.0 | 3.2 | 0.00 | 0.00 | 0.00 | 91 | 1013.4 |
| 20260509063451 | 23 | 90 | 0.0 | 3.2 | 0.00 | 0.00 | 0.00 | 91 | 1013.6 |
| 20260509062948 | 23 | 111 | 0.0 | 1.6 | 0.00 | 0.00 | 0.00 | 91 | 1013.3 |
| 20260509062445 | 23 | 81 | 0.0 | 4.8 | 0.00 | 0.00 | 0.00 | 91 | 1013.4 |
| 20260509061943 | 23 | 168 | 1.6 | 6.4 | 0.00 | 0.00 | 0.00 | 90 | 1013.5 |
| 20260509061440 | 23 | 180 | 3.2 | 9.7 | 0.00 | 0.00 | 0.00 | 90 | 1013.5 |
| 20260509060937 | 23 | 168 | 1.6 | 9.7 | 0.00 | 0.00 | 0.00 | 91 | 1013.4 |
| 20260509060435 | 23 | 151 | 8.0 | 9.7 | 0.00 | 0.00 | 0.00 | 90 | 1013.3 |
| 20260509055930 | 23 | 158 | 6.4 | 11.3 | 0.00 | 0.00 | 0.00 | 90 | 1013.2 |
| 20260509055425 | 23 | 145 | 8.0 | 11.3 | 0.00 | 0.00 | 0.00 | 91 | 1013.1 |
| 20260509054922 | 23 | 158 | 11.3 | 17.7 | 0.00 | 0.00 | 0.00 | 91 | 1013.2 |
| 20260509054418 | 23 | 200 | 1.6 | 8.0 | 0.00 | 0.00 | 0.00 | 91 | 1013.1 |
| 20260509053917 | 22 | 149 | 4.8 | 8.0 | 0.00 | 0.00 | 0.00 | 91 | 1013.2 |
| 20260509053415 | 22 | 155 | 6.4 | 12.9 | 0.00 | 0.00 | 0.00 | 91 | 1013.3 |
| 20260509052912 | 22 | 160 | 6.4 | 16.1 | 0.00 | 0.00 | 0.00 | 91 | 1013.1 |
| 20260509052409 | 22 | 200 | 0.0 | 9.7 | 0.00 | 0.00 | 0.00 | 90 | 1013.0 |
| 20260509051907 | 22 | 132 | 3.2 | 9.7 | 0.00 | 0.00 | 0.00 | 91 | 1012.7 |
| 20260509051405 | 22 | 114 | 6.4 | 9.7 | 0.00 | 0.00 | 0.00 | 90 | 1012.6 |
| 20260509050901 | 22 | 131 | 3.2 | 9.7 | 0.00 | 0.00 | 0.00 | 90 | 1012.4 |
| 20260509050358 | 23 | 126 | 9.7 | 11.3 | 0.00 | 0.00 | 0.00 | 90 | 1012.5 |
| 20260509045855 | 22 | 142 | 6.4 | 14.5 | 0.00 | 0.00 | 0.00 | 90 | 1012.6 |